Cairo, Egypt

9:23 AM EET on December 14, 2017 (GMT +0200)
Cairo International Airport

Weather History for HECA - April, 2013

Change the Weather History Date:

Thursday, April 11, 2013

  Actual Average Record
Temperature  
Mean Temperature 66 °F -  
Max Temperature 74 °F 83 °F 93 °F (2005)
Min Temperature 57 °F 60 °F 46 °F (1997)
Growing Degree Days 16 (Base 50)    
Moisture  
Dew Point 47 °F    
Average Humidity 53    
Maximum Humidity 82    
Minimum Humidity 19    
Precipitation  
Precipitation 0.00 in 0.00 in - ()
Sea Level Pressure  
Sea Level Pressure 29.98 in    
Wind  
Wind Speed 8 mph ()    
Max Wind Speed 15 mph    
Max Gust Speed -    
Visibility 5.0 miles    
Events      
Averages and records for this station are not official NWS values.
T = Trace of Precipitation, MM = Missing Value Source: Averaged Metar Reports

Daily Weather History Graph

Daily Weather History Graph

Search for Another Location

Airport or City:

Trip Planner

Search our weather history database for the weather conditions in past years. The results will help you decide how hot, cold, wet, or windy it might be!

Date:

Astronomy

Apr. 11, 2013 Rise Set
Actual Time 5:32 AM EET 6:19 PM EET
Civil Twilight 5:07 AM EET 6:43 PM EET
Nautical Twilight 4:38 AM EET 7:12 PM EET
Astronomical Twilight 4:09 AM EET 7:41 PM EET
Moon 5:56 AM EET (4/11) 7:27 PM EET (4/11)
Length of Visible Light 13h 36m
Length of Day
12h 47m
New Moon, 1% of the Moon is Illuminated
Apr 11
New Moon
Apr 18
First Quarter
Apr 25
Full
May 2
Last Quarter
May 10
New

Hourly Weather History & Observations

Time (EET) Temp. Dew Point Humidity Pressure Visibility Wind Dir Wind Speed Gust Speed Precip Events Conditions
12:00 AM 62.6 °F 48.2 °F 59% 30.04 in - NE 6.9 mph - N/A   Clear
12:30 AM 62.6 °F 48.2 °F 59% 30.01 in - North 6.9 mph - N/A   Clear
1:00 AM 60.8 °F 50.0 °F 68% 30.01 in - NNE 8.1 mph - N/A   Clear
1:30 AM 60.8 °F 50.0 °F 68% 30.01 in - NNE 9.2 mph - N/A   Clear
2:00 AM 61 °F 52 °F 63% 30.02 in 6 mi NNE 9.2 mph - -  
2:00 AM 60.8 °F 51.8 °F 72% 30.01 in - NNE 9.2 mph - N/A   Clear
2:30 AM 60.8 °F 51.8 °F 72% 30.01 in - NNE 9.2 mph - N/A   Clear
3:00 AM 59.0 °F 51.8 °F 77% 29.98 in - NE 8.1 mph - N/A   Clear
3:30 AM 59.0 °F 51.8 °F 77% 29.98 in - ENE 6.9 mph - N/A   Clear
4:00 AM 59.0 °F 51.8 °F 77% 29.98 in - ENE 6.9 mph - N/A   Clear
4:30 AM 57.2 °F 51.8 °F 82% 29.98 in - East 6.9 mph - N/A   Clear
4:32 AM 57.2 °F 51.8 °F 82% 29.98 in - East 6.9 mph - N/A   Clear
5:00 AM 57.2 °F 50.0 °F 77% 29.98 in - ENE 4.6 mph - N/A   Clear
5:30 AM 59.0 °F 51.8 °F 77% 29.98 in - East 8.1 mph - N/A   Clear
6:00 AM 59.0 °F 51.8 °F 77% 29.98 in - NE 6.9 mph - N/A   Clear
6:30 AM 59.0 °F 51.8 °F 77% 29.98 in 3.7 mi ENE 6.9 mph - N/A   Unknown
7:00 AM 59.0 °F 51.8 °F 77% 29.98 in 3.7 mi NE 6.9 mph - N/A   Unknown
7:30 AM 60.8 °F 51.8 °F 72% 29.98 in 3.7 mi East 8.1 mph - N/A   Unknown
8:00 AM 62 °F 52 °F 61% 30.01 in 6 mi East 10.4 mph - -  
8:00 AM 62.6 °F 51.8 °F 68% 29.98 in - East 10.4 mph - N/A   Clear
8:30 AM 64.4 °F 50.0 °F 59% 30.01 in - ENE 5.8 mph - N/A   Clear
9:00 AM 64.4 °F 48.2 °F 56% 30.01 in - NE 6.9 mph - N/A   Clear
9:30 AM 66.2 °F 46.4 °F 49% 30.01 in - NE 6.9 mph - N/A   Clear
10:00 AM 66.2 °F 42.8 °F 43% 30.01 in - ENE 6.9 mph - N/A   Clear
10:30 AM 66.2 °F 42.8 °F 43% 30.01 in - ENE 6.9 mph - N/A   Clear
11:00 AM 69.8 °F 41.0 °F 35% 29.98 in - NNW 9.2 mph - N/A   Clear
11:30 AM 71.6 °F 41.0 °F 33% 29.98 in - North 6.9 mph - N/A   Clear
12:00 PM 71.6 °F 42.8 °F 35% 29.98 in - North 5.8 mph - N/A   Clear
12:30 PM 73.4 °F 42.8 °F 33% 29.98 in - NW 9.2 mph - N/A   Clear
1:00 PM 73.4 °F 39.2 °F 29% 29.98 in - WNW 11.5 mph - N/A   Clear
1:30 PM 73.4 °F 41.0 °F 31% 29.95 in - NNW 9.2 mph - N/A   Clear
2:00 PM 74 °F 40 °F 19% 29.96 in 6 mi NNW 9.2 mph - -  
2:00 PM 73.4 °F 41.0 °F 31% 29.95 in - NNW 9.2 mph - N/A   Clear
2:30 PM 75.2 °F 37.4 °F 25% 29.95 in - NW 9.2 mph - N/A   Clear
3:00 PM 75.2 °F 41.0 °F 29% 29.92 in - NW 11.5 mph - N/A   Clear
3:30 PM 75.2 °F 41.0 °F 29% 29.92 in - NW 11.5 mph - N/A   Clear
4:00 PM 75.2 °F 39.2 °F 27% 29.92 in - NW 10.4 mph - N/A   Clear
4:30 PM 73.4 °F 39.2 °F 29% 29.92 in - NNW 10.4 mph - N/A   Clear
5:00 PM 73.4 °F 42.8 °F 33% 29.95 in - NNW 10.4 mph - N/A   Clear
5:30 PM 73.4 °F 42.8 °F 33% 29.95 in - North 10.4 mph - N/A   Clear
6:00 PM 73.4 °F 42.8 °F 33% 29.95 in - North 11.5 mph - N/A   Clear
6:30 PM 71.6 °F 44.6 °F 38% 29.95 in - North 11.5 mph - N/A   Clear
7:00 PM 71.6 °F 44.6 °F 38% 29.95 in - North 8.1 mph - N/A   Clear
7:30 PM 71.6 °F 44.6 °F 38% 29.95 in - North 8.1 mph - N/A   Clear
8:00 PM 70 °F 46 °F 30% 29.96 in 6 mi North 8.1 mph - -  
8:00 PM 69.8 °F 46.4 °F 43% 29.95 in - North 8.1 mph - N/A   Clear
8:30 PM 69.8 °F 46.4 °F 43% 29.98 in - NNE 9.2 mph - N/A   Clear
9:00 PM 68.0 °F 51.8 °F 56% 29.98 in - NNE 15.0 mph - N/A   Clear
9:30 PM 66.2 °F 53.6 °F 64% 29.98 in - NNE 15.0 mph - N/A   Clear
10:00 PM 64.4 °F 53.6 °F 68% 29.98 in - NNE 15.0 mph - N/A   Clear
10:30 PM 64.4 °F 51.8 °F 64% 29.98 in - NE 12.7 mph - N/A   Clear
11:00 PM 64.4 °F 51.8 °F 64% 29.98 in - ENE 11.5 mph - N/A   Clear
11:30 PM 64.4 °F 51.8 °F 64% 29.98 in - ENE 12.7 mph - N/A   Clear